Time[GMT],current_speed[cm/s](2m),current_direction[angular_degrees](2m),temperature[C](2m),current_u[cm/s](2m),current_v[cm/s](2m),signal_strength[db](2m),tilt[degrees](2m)
2020-11-10 22:00,4.12,44.2,11.11,2.87,2.95,-26.19,4.95
2020-11-10 23:00,10.72,173.5,11.08,1.22,-10.65,-25.52,3.88
2020-11-11 00:00,23.12,194.4,11.09,-5.74,-22.40,-26.39,3.70
2020-11-11 01:00,23.81,177.2,11.08,1.16,-23.78,-27.23,3.16
2020-11-11 02:00,40.06,175.7,11.10,2.99,-39.95,-26.33,4.13
2020-11-11 03:00,44.23,178.4,11.09,1.21,-44.21,-25.29,4.82
2020-11-11 04:00,30.59,197.9,11.10,-9.42,-29.11,-26.74,4.87
2020-11-11 05:00,14.25,160.9,11.08,4.65,-13.47,-23.33,5.84
2020-11-11 06:00,4.28,151.3,11.08,2.06,-3.75,-26.49,5.61
2020-11-11 07:00,1.00,323.4,11.10,-0.59,0.80,-24.31,5.13
2020-11-11 08:00,14.25,23.7,11.06,5.73,13.04,-18.77,6.95
2020-11-11 09:00,17.32,44.9,11.04,12.22,12.27,-26.60,6.82
2020-11-11 10:00,23.27,33.2,11.05,12.75,19.46,-25.38,9.00
2020-11-11 11:00,12.00,87.3,11.02,11.99,0.56,-9.26,8.44
2020-11-11 12:00,3.26,76.5,11.00,3.17,0.76,-24.21,6.86
2020-11-11 13:00,21.63,164.9,11.03,5.64,-20.88,-23.72,6.43
2020-11-11 14:00,33.90,158.5,11.02,12.40,-31.55,-21.70,7.10
2020-11-11 15:00,30.98,168.4,11.05,6.25,-30.34,-19.72,8.26
2020-11-11 16:00,26.54,154.8,11.08,11.29,-24.02,-21.31,7.90
2020-11-11 17:00,26.39,126.6,11.11,21.19,-15.72,-20.61,9.32
2020-11-11 18:00,20.82,117.6,11.16,18.44,-9.66,-25.55,8.91
2020-11-11 19:00,2.89,85.2,11.13,2.88,0.24,-19.00,6.90
2020-11-11 20:00,19.88,29.9,11.10,9.90,17.24,-25.84,8.36
2020-11-11 21:00,12.91,13.7,11.07,3.06,12.54,-23.19,7.93
2020-11-11 22:00,26.50,12.6,11.04,5.77,25.86,-25.08,7.50
2020-11-11 23:00,11.86,2.5,11.02,0.52,11.85,-18.29,8.81
2020-11-12 00:00,5.86,47.2,11.03,4.30,3.98,-20.42,8.54
2020-11-12 01:00,6.61,99.5,11.03,6.52,-1.09,-22.15,7.31
2020-11-12 02:00,18.33,185.4,11.05,-1.72,-18.25,-27.57,6.02
2020-11-12 03:00,28.62,160.3,11.06,9.65,-26.95,-21.25,7.59
2020-11-12 04:00,27.21,146.2,11.06,15.14,-22.61,-22.94,7.93
2020-11-12 05:00,20.69,161.5,11.02,6.58,-19.62,-21.12,7.08
2020-11-12 06:00,16.78,84.3,11.02,16.70,1.66,-20.58,9.57
2020-11-12 07:00,18.22,78.3,11.02,17.84,3.69,-14.70,9.03
2020-11-12 08:00,25.28,20.4,11.01,8.81,23.69,-24.23,7.24
2020-11-12 09:00,25.39,360.0,11.00,-0.02,25.39,-23.87,5.97
2020-11-12 10:00,27.12,349.5,10.96,-4.95,26.67,-25.77,4.72
2020-11-12 11:00,22.78,330.7,11.00,-11.16,19.86,-27.42,3.73
2020-11-12 12:00,15.17,302.2,10.99,-12.84,8.08,-28.19,2.96
2020-11-12 13:00,11.54,289.9,11.02,-10.85,3.93,-28.37,3.11
2020-11-12 14:00,14.89,237.0,11.03,-12.49,-8.10,-27.99,2.78
2020-11-12 15:00,26.10,199.6,11.07,-8.76,-24.59,-25.87,5.16
2020-11-12 16:00,34.65,184.6,11.00,-2.78,-34.54,-27.71,6.15
2020-11-12 17:00,38.50,185.9,11.09,-3.93,-38.30,-27.13,7.79
2020-11-12 18:00,21.72,191.3,10.95,-4.24,-21.30,-26.92,6.52
2020-11-12 19:00,7.68,211.9,11.12,-4.06,-6.52,-27.29,4.73
2020-11-12 20:00,12.25,303.5,11.09,-10.21,6.77,-26.04,4.14
2020-11-12 21:00,16.34,342.1,11.01,-5.01,15.55,-25.85,4.80
2020-11-12 22:00,22.04,337.3,10.92,-8.51,20.33,-25.31,5.36
2020-11-12 23:00,26.73,297.5,10.93,-23.70,12.36,-24.01,6.47
2020-11-13 00:00,35.16,298.5,10.94,-30.89,16.80,-18.00,8.91
2020-11-13 01:00,15.51,273.4,10.90,-15.48,0.92,-20.46,8.60
2020-11-13 02:00,9.69,238.9,10.89,-8.30,-5.00,-20.38,9.80
2020-11-13 03:00,24.94,185.7,10.87,-2.49,-24.82,-12.42,10.18
2020-11-13 04:00,40.15,169.0,10.86,7.64,-39.42,-25.20,12.03
2020-11-13 05:00,42.47,178.2,10.86,1.34,-42.45,-17.51,12.59
2020-11-13 06:00,34.46,181.8,10.90,-1.05,-34.44,-23.66,12.60
2020-11-13 07:00,23.30,210.3,10.91,-11.75,-20.12,-19.76,11.72
2020-11-13 08:00,7.48,219.5,10.89,-4.75,-5.77,-24.69,10.22
2020-11-13 09:00,12.55,256.7,10.85,-12.21,-2.89,-20.65,9.89
2020-11-13 10:00,30.39,333.7,10.85,-13.48,27.24,-19.02,7.13
2020-11-13 11:00,29.99,342.8,10.78,-8.89,28.64,-24.67,6.64
2020-11-13 12:00,26.63,331.2,10.78,-12.83,23.34,-18.73,7.63
2020-11-13 13:00,17.14,319.2,10.79,-11.21,12.96,-21.33,9.89
2020-11-13 14:00,6.63,282.0,10.78,-6.49,1.37,-25.08,6.57
2020-11-13 15:00,9.49,211.7,10.75,-4.99,-8.08,-24.48,5.56
2020-11-13 16:00,32.78,184.1,10.79,-2.36,-32.70,-27.28,7.35
2020-11-13 17:00,57.98,181.9,10.90,-1.94,-57.95,-27.39,9.93
2020-11-13 18:00,69.79,161.5,10.89,22.11,-66.19,-25.09,12.64
2020-11-13 19:00,64.72,163.4,10.89,18.54,-62.01,-24.16,12.86
2020-11-13 20:00,46.48,165.9,10.86,11.34,-45.08,-21.35,11.26
2020-11-13 21:00,40.91,165.7,10.82,10.12,-39.64,-26.05,9.52
2020-11-13 22:00,19.46,201.6,10.86,-7.17,-18.09,-25.42,7.77
2020-11-13 23:00,11.80,233.1,10.82,-9.44,-7.08,-22.17,6.99
2020-11-14 00:00,32.37,280.3,10.78,-31.85,5.80,-18.43,9.78
2020-11-14 01:00,18.26,281.7,10.73,-17.87,3.71,-21.68,8.60
2020-11-14 02:00,6.37,257.3,10.72,-6.21,-1.40,-15.66,8.01
2020-11-14 03:00,40.18,182.6,10.74,-1.83,-40.14,-25.81,10.59
2020-11-14 04:00,47.10,184.1,10.77,-3.36,-46.98,-26.02,11.60
2020-11-14 05:00,61.24,177.8,10.83,2.39,-61.19,-27.05,10.60
2020-11-14 06:00,79.02,156.4,10.68,31.57,-72.44,-26.55,14.38
2020-11-14 07:00,64.15,155.3,10.69,26.80,-58.28,-27.20,11.77
2020-11-14 08:00,28.29,157.8,10.73,10.68,-26.20,-26.71,6.97
2020-11-14 09:00,15.78,177.2,10.73,0.76,-15.77,-24.28,4.06
2020-11-14 10:00,5.63,239.2,10.76,-4.84,-2.88,-25.55,2.99
2020-11-14 11:00,13.39,14.8,10.72,3.41,12.95,-24.62,3.60
2020-11-14 12:00,11.22,64.4,10.64,10.11,4.85,-26.68,4.37
2020-11-14 13:00,8.79,89.8,10.73,8.79,0.02,-25.15,4.26
2020-11-14 14:00,24.80,153.9,10.65,10.90,-22.28,-26.37,5.88
2020-11-14 15:00,44.74,164.0,10.56,12.37,-43.00,-27.91,7.92
2020-11-14 16:00,62.93,170.8,10.59,10.06,-62.12,-27.67,10.71
2020-11-14 17:00,68.75,174.0,10.56,7.23,-68.37,-25.52,13.23
2020-11-14 18:00,80.63,175.0,10.44,6.97,-80.33,-27.80,15.66
2020-11-14 19:00,71.09,161.4,10.49,22.62,-67.40,-25.65,14.84
2020-11-14 20:00,64.51,162.4,10.50,19.54,-61.48,-26.30,13.09
2020-11-14 21:00,48.79,166.1,10.50,11.74,-47.36,-20.67,12.70
2020-11-14 22:00,32.34,169.9,10.54,5.67,-31.83,-23.91,9.72
2020-11-14 23:00,15.78,196.2,10.53,-4.41,-15.15,-20.43,7.40
2020-11-15 00:00,4.41,113.1,10.53,4.06,-1.73,-19.74,7.48
2020-11-15 01:00,4.22,227.0,10.54,-3.08,-2.88,-26.28,5.09
2020-11-15 02:00,25.48,167.6,10.49,5.47,-24.89,-26.98,5.97
2020-11-15 03:00,24.00,175.1,10.64,2.04,-23.91,-26.92,4.51
2020-11-15 04:00,55.65,163.7,10.34,15.59,-53.42,-24.11,11.16
2020-11-15 05:00,64.06,177.0,10.44,3.30,-63.98,-24.54,12.33
2020-11-15 06:00,64.52,172.2,10.49,8.72,-63.93,-23.49,14.38
2020-11-15 07:00,56.53,170.8,10.48,9.01,-55.81,-26.77,10.42
2020-11-15 08:00,42.89,174.6,10.46,4.01,-42.70,-27.44,7.84
2020-11-15 09:00,31.27,158.5,10.31,11.48,-29.09,-26.85,6.47
2020-11-15 10:00,15.69,197.5,10.37,-4.71,-14.96,-26.91,3.92
2020-11-15 11:00,4.85,150.3,10.38,2.41,-4.21,-26.29,3.32
2020-11-15 12:00,6.19,351.2,10.34,-0.95,6.12,-27.53,3.55
2020-11-15 13:00,5.59,84.0,10.22,5.56,0.59,-26.60,3.30
2020-11-15 14:00,13.32,152.9,10.35,6.07,-11.85,-25.68,2.65
2020-11-15 15:00,29.07,170.9,10.36,4.62,-28.70,-26.88,3.79
2020-11-15 16:00,38.75,169.2,10.42,7.28,-38.06,-26.92,5.05
2020-11-15 17:00,58.47,177.8,10.46,2.22,-58.43,-26.73,7.37
2020-11-15 18:00,65.24,178.4,10.40,1.87,-65.21,-27.39,7.94
2020-11-15 19:00,55.36,180.6,10.53,-0.55,-55.36,-26.61,6.15
2020-11-15 20:00,48.49,189.5,10.57,-8.04,-47.82,-25.05,5.71
2020-11-15 21:00,21.68,199.6,10.54,-7.26,-20.43,-23.47,4.55
2020-11-15 22:00,5.64,192.8,10.51,-1.25,-5.50,-19.21,8.66
2020-11-15 23:00,15.01,0.4,10.52,0.10,15.01,-20.67,10.73
2020-11-16 00:00,36.52,356.2,10.55,-2.41,36.44,-4.96,14.64
2020-11-16 01:00,50.15,12.3,10.40,10.65,49.01,-12.83,16.57
2020-11-16 02:00,29.37,10.8,10.52,5.50,28.85,-14.79,14.66
2020-11-16 03:00,16.42,19.7,10.48,5.54,15.46,-6.62,12.55
2020-11-16 04:00,7.02,50.6,10.48,5.43,4.45,-9.95,15.69
2020-11-16 05:00,17.21,358.8,10.50,-0.37,17.20,-0.90,18.95
2020-11-16 06:00,3.86,63.8,10.49,3.46,1.71,-11.31,19.64
2020-11-16 07:00,19.14,105.7,10.49,18.43,-5.18,-6.42,14.44
2020-11-16 08:00,50.58,153.5,10.54,22.55,-45.28,-24.48,8.30
2020-11-16 09:00,33.01,131.6,10.58,24.67,-21.93,-19.74,9.58
2020-11-16 10:00,24.38,100.8,10.57,23.95,-4.57,-25.67,8.89
2020-11-16 11:00,4.94,101.4,10.58,4.84,-0.98,-25.95,6.14
2020-11-16 12:00,15.96,1.1,10.58,0.30,15.96,-20.88,7.88
2020-11-16 13:00,34.24,25.9,10.50,14.96,30.80,-11.78,11.77
2020-11-16 14:00,23.82,39.8,10.44,15.24,18.31,-18.01,9.57
2020-11-16 15:00,18.24,13.9,10.54,4.38,17.71,-12.93,11.47
2020-11-16 16:00,14.56,68.2,10.52,13.53,5.40,-17.98,10.18
2020-11-16 17:00,22.06,152.7,10.50,10.12,-19.61,-19.16,11.29
2020-11-16 18:00,32.45,157.6,10.51,12.39,-29.99,-18.21,9.19
2020-11-16 19:00,51.36,165.4,10.53,12.92,-49.71,-18.05,11.41
2020-11-16 20:00,41.75,165.9,10.56,10.14,-40.50,-22.12,9.75
2020-11-16 21:00,49.27,174.7,10.59,4.59,-49.05,-16.11,10.58
2020-11-16 22:00,30.82,184.3,10.57,-2.33,-30.73,-18.23,7.97
2020-11-16 23:00,11.72,125.2,10.51,9.57,-6.76,-23.98,8.64
2020-11-17 00:00,8.55,59.8,10.48,7.39,4.30,-23.16,8.52
2020-11-17 01:00,22.24,38.8,10.48,13.93,17.34,-24.24,7.09
2020-11-17 02:00,28.16,359.4,10.49,-0.31,28.16,-24.89,5.98
2020-11-17 03:00,10.12,358.4,10.46,-0.27,10.12,-24.56,6.68
2020-11-17 04:00,13.11,291.2,10.45,-12.22,4.74,-19.52,6.29
2020-11-17 05:00,4.92,277.5,10.43,-4.88,0.64,-16.37,8.26
2020-11-17 06:00,23.51,185.1,10.43,-2.10,-23.42,-22.73,8.19
2020-11-17 07:00,33.15,182.3,10.43,-1.32,-33.13,-24.41,7.79
2020-11-17 08:00,44.80,175.9,10.49,3.24,-44.68,-25.72,8.42
2020-11-17 09:00,34.49,161.1,10.37,11.17,-32.63,-22.44,7.61
2020-11-17 10:00,21.93,176.7,10.46,1.27,-21.90,-26.87,6.56
2020-11-17 11:00,22.34,130.0,10.35,17.12,-14.35,-21.17,7.51
2020-11-17 12:00,7.67,171.5,10.38,1.14,-7.58,-27.10,4.71
2020-11-17 13:00,10.02,10.3,10.34,1.78,9.86,-27.50,4.31
2020-11-17 14:00,29.68,333.5,10.34,-13.24,26.57,-27.80,3.81
2020-11-17 15:00,45.59,316.8,10.36,-31.18,33.26,-24.89,4.13
2020-11-17 16:00,19.51,309.5,10.38,-15.06,12.40,-24.32,4.07
2020-11-17 17:00,12.39,302.5,10.35,-10.45,6.66,-25.29,3.53
2020-11-17 18:00,11.32,252.7,10.35,-10.81,-3.36,-21.34,6.07
2020-11-17 19:00,27.52,177.4,10.37,1.26,-27.49,-21.26,7.36
2020-11-17 20:00,41.18,184.7,10.33,-3.34,-41.04,-22.00,9.63
2020-11-17 21:00,47.01,173.7,10.33,5.17,-46.72,-24.77,9.33
2020-11-17 22:00,38.75,167.1,10.30,8.66,-37.77,-25.08,8.40
2020-11-17 23:00,12.07,172.1,10.39,1.65,-11.96,-24.09,6.97
2020-11-18 00:00,14.13,164.0,10.29,3.89,-13.59,-16.86,8.25
2020-11-18 01:00,8.68,247.3,10.30,-8.01,-3.34,-23.21,4.86
2020-11-18 02:00,15.28,348.2,10.27,-3.12,14.96,-27.02,4.28
2020-11-18 03:00,32.51,324.4,10.28,-18.95,26.42,-25.58,3.62
2020-11-18 04:00,32.00,305.3,10.29,-26.11,18.50,-22.54,5.54
2020-11-18 05:00,13.80,274.8,10.29,-13.75,1.14,-24.32,8.97
2020-11-18 06:00,10.08,267.0,10.32,-10.06,-0.52,-19.46,7.36
2020-11-18 07:00,27.51,170.4,10.25,4.61,-27.12,-25.67,8.60
2020-11-18 08:00,37.32,179.3,10.21,0.44,-37.32,-23.73,9.45
2020-11-18 09:00,40.08,176.6,10.22,2.40,-40.01,-24.15,10.49
2020-11-18 10:00,32.88,163.8,10.27,9.19,-31.56,-10.52,14.97
2020-11-18 11:00,31.07,162.4,10.26,9.41,-29.61,-19.56,11.49
2020-11-18 12:00,9.18,172.6,10.23,1.18,-9.10,-17.25,9.95
2020-11-18 13:00,10.46,250.7,10.23,-9.88,-3.45,-11.06,9.83
2020-11-18 14:00,19.56,5.2,10.26,1.76,19.48,-21.26,6.01
2020-11-18 15:00,20.37,319.7,10.24,-13.18,15.53,-20.08,7.86
2020-11-18 16:00,32.55,328.4,10.24,-17.07,27.71,-15.98,8.36
2020-11-18 17:00,10.33,256.8,10.21,-10.06,-2.36,-8.17,10.62
2020-11-18 18:00,5.90,226.2,10.17,-4.26,-4.09,-5.56,11.29
2020-11-18 19:00,24.16,173.8,10.16,2.59,-24.02,-10.73,9.86
2020-11-18 20:00,45.40,183.3,10.19,-2.61,-45.32,-19.50,13.04
2020-11-18 21:00,48.16,172.1,10.20,6.63,-47.70,-18.58,12.05
2020-11-18 22:00,56.97,170.2,10.18,9.72,-56.14,-21.52,13.18
2020-11-18 23:00,40.49,171.2,10.16,6.20,-40.02,-22.96,11.91
2020-11-19 00:00,18.87,179.7,10.17,0.11,-18.87,-24.87,8.63
2020-11-19 01:00,5.29,172.7,10.19,0.67,-5.25,-23.80,6.10
2020-11-19 02:00,12.17,329.0,10.15,-6.27,10.43,-26.47,6.96
2020-11-19 03:00,27.20,336.1,10.17,-11.03,24.86,-23.83,4.84
2020-11-19 04:00,21.56,1.9,10.08,0.71,21.55,-27.43,5.42
2020-11-19 05:00,22.42,344.6,10.09,-5.96,21.62,-19.75,4.42
2020-11-19 06:00,8.66,284.5,10.03,-8.38,2.17,-24.44,5.32
2020-11-19 07:00,7.70,168.1,10.00,1.59,-7.54,-14.24,7.39
2020-11-19 08:00,40.62,172.9,10.04,5.00,-40.31,-26.78,9.16
2020-11-19 09:00,39.90,175.5,10.04,3.10,-39.78,-25.82,8.66
2020-11-19 10:00,34.76,178.1,10.04,1.16,-34.74,-22.46,7.17
2020-11-19 11:00,40.37,181.1,9.86,-0.79,-40.36,-27.39,8.36
2020-11-19 12:00,28.95,194.5,9.89,-7.26,-28.03,-28.14,4.86
2020-11-19 13:00,18.16,206.7,9.80,-8.16,-16.23,-28.92,2.70
2020-11-19 14:00,15.31,261.5,9.94,-15.15,-2.25,-28.43,1.87
2020-11-19 15:00,29.04,335.6,9.97,-12.00,26.45,-28.73,2.76
2020-11-19 16:00,34.58,333.4,10.02,-15.46,30.94,-25.33,4.75
2020-11-19 17:00,32.15,356.5,9.96,-1.96,32.09,-21.64,8.04
2020-11-19 18:00,17.99,3.4,9.95,1.07,17.96,-11.66,9.81
2020-11-19 19:00,17.56,117.6,9.93,15.56,-8.12,-12.51,10.33
2020-11-19 20:00,20.46,162.2,9.97,6.26,-19.48,-18.46,9.35
2020-11-19 21:00,29.47,168.0,9.97,6.15,-28.82,-11.88,11.01
2020-11-19 22:00,43.03,164.7,9.90,11.34,-41.51,-12.36,11.45
2020-11-19 23:00,33.15,171.7,9.91,4.80,-32.80,-12.63,11.76
2020-11-20 00:00,29.68,126.9,9.95,23.73,-17.83,-16.30,11.75
2020-11-20 01:00,17.49,117.8,9.90,15.46,-8.16,-17.45,13.42
2020-11-20 02:00,14.54,92.8,9.84,14.53,-0.70,-20.59,12.99
2020-11-20 03:00,18.90,37.0,9.83,11.38,15.09,-14.42,12.26
2020-11-20 04:00,28.10,36.2,9.86,16.58,22.68,-11.86,11.77
2020-11-20 05:00,23.88,29.2,9.89,11.67,20.83,-14.34,13.68
2020-11-20 06:00,13.46,45.6,9.89,9.61,9.42,-18.45,11.86
2020-11-20 07:00,17.07,44.8,9.86,12.02,12.12,-7.88,11.46
2020-11-20 08:00,8.58,167.9,9.88,1.80,-8.39,-18.04,11.63
2020-11-20 09:00,16.21,159.2,9.88,5.76,-15.16,-17.03,10.82
2020-11-20 10:00,26.33,155.3,9.84,10.98,-23.93,-24.12,9.92
2020-11-20 11:00,27.14,152.3,9.81,12.62,-24.03,-19.88,10.85
2020-11-20 12:00,19.66,144.5,9.77,11.43,-16.00,-19.75,9.61
2020-11-20 13:00,17.54,133.4,9.76,12.74,-12.06,-21.49,9.22
2020-11-20 14:00,12.49,77.0,9.77,12.17,2.81,-21.46,9.63
2020-11-20 15:00,7.88,29.6,9.78,3.89,6.85,-16.18,8.29
2020-11-20 16:00,13.39,352.9,9.77,-1.65,13.29,-22.94,7.91
2020-11-20 17:00,26.11,7.1,9.80,3.23,25.91,-23.64,6.32
2020-11-20 18:00,18.00,344.2,9.81,-4.92,17.32,-25.84,7.35
2020-11-20 19:00,11.73,324.4,9.84,-6.82,9.54,-23.17,8.16
2020-11-20 20:00,16.42,202.5,9.80,-6.29,-15.17,-24.31,7.01
2020-11-20 21:00,6.77,151.9,9.79,3.19,-5.97,-24.96,7.16
2020-11-20 22:00,18.60,188.6,9.78,-2.78,-18.39,-26.66,5.64
2020-11-20 23:00,27.59,167.5,9.80,5.98,-26.93,-27.11,5.37
2020-11-21 00:00,33.10,168.3,9.78,6.71,-32.41,-26.50,5.28
2020-11-21 01:00,22.37,172.9,9.78,2.77,-22.20,-24.69,5.36
2020-11-21 02:00,7.44,155.3,9.80,3.11,-6.76,-24.76,6.15
2020-11-21 03:00,6.30,232.5,9.81,-5.00,-3.84,-26.06,5.24
2020-11-21 04:00,4.97,63.4,9.79,4.44,2.22,-27.90,5.25
2020-11-21 05:00,8.71,349.0,9.76,-1.67,8.55,-27.82,4.90
2020-11-21 06:00,2.25,155.9,9.75,0.92,-2.06,-27.60,5.43
2020-11-21 07:00,11.84,279.7,9.76,-11.67,1.99,-27.95,4.10
2020-11-21 08:00,10.51,216.4,9.75,-6.24,-8.46,-28.23,4.12
2020-11-21 09:00,18.81,210.8,9.75,-9.64,-16.15,-28.40,3.79
2020-11-21 10:00,23.66,211.6,9.77,-12.38,-20.16,-28.43,3.90
2020-11-21 11:00,27.42,181.7,9.73,-0.83,-27.41,-16.52,4.48
2020-11-21 12:00,28.08,172.1,9.77,3.86,-27.82,-28.84,4.13
2020-11-21 13:00,23.90,183.2,9.79,-1.32,-23.86,-31.26,4.53
2020-11-21 14:00,15.43,205.6,9.86,-6.66,-13.92,-30.94,4.16
2020-11-21 15:00,7.53,305.4,9.89,-6.13,4.37,-18.93,8.70
2020-11-21 16:00,5.12,133.5,9.89,3.71,-3.53,-17.78,7.74
2020-11-21 17:00,6.83,80.0,9.89,6.73,1.18,-25.18,6.09
2020-11-21 18:00,3.09,356.0,9.88,-0.22,3.09,-27.71,6.54
2020-11-21 19:00,5.45,194.7,9.88,-1.38,-5.27,-27.50,6.22
2020-11-21 20:00,15.90,212.7,9.85,-8.59,-13.37,-24.81,6.85
2020-11-21 21:00,25.33,195.4,9.85,-6.71,-24.42,-28.96,6.97
2020-11-21 22:00,28.98,191.8,9.83,-5.94,-28.36,-25.74,8.71
2020-11-21 23:00,40.33,181.8,9.80,-1.29,-40.31,-22.96,11.68
2020-11-22 00:00,49.80,177.8,9.80,1.95,-49.76,-24.28,11.96
2020-11-22 01:00,32.93,179.5,9.84,0.32,-32.93,-26.16,10.26
2020-11-22 02:00,31.47,182.0,9.84,-1.10,-31.45,-23.77,10.47
2020-11-22 03:00,21.96,187.7,9.79,-2.94,-21.77,-21.70,10.77
2020-11-22 04:00,14.64,231.6,9.76,-11.48,-9.08,-24.99,10.10
2020-11-22 05:00,6.59,267.0,9.75,-6.58,-0.34,-17.49,9.02
2020-11-22 06:00,9.47,334.6,9.75,-4.06,8.55,-25.22,6.91
2020-11-22 07:00,3.99,7.8,9.72,0.54,3.95,-21.65,8.65
2020-11-22 08:00,8.37,86.2,9.70,8.35,0.55,-26.31,5.82
2020-11-22 09:00,3.58,92.8,9.61,3.57,-0.17,-26.39,7.42
2020-11-22 10:00,28.02,175.4,9.71,2.24,-27.93,-25.83,6.70
2020-11-22 11:00,33.57,183.9,9.68,-2.31,-33.49,-29.07,5.91
2020-11-22 12:00,48.08,182.9,9.63,-2.44,-48.02,-30.90,8.01
2020-11-22 13:00,43.17,176.9,9.71,2.36,-43.11,-28.71,7.88
2020-11-22 14:00,35.08,182.0,9.71,-1.23,-35.05,-29.23,6.69
2020-11-22 15:00,17.95,197.7,9.69,-5.46,-17.10,-30.02,4.48
2020-11-22 16:00,13.71,221.7,9.70,-9.13,-10.23,-29.36,5.24
2020-11-22 17:00,11.81,248.7,9.74,-11.00,-4.29,-31.06,3.71
2020-11-22 18:00,5.43,308.2,9.75,-4.27,3.35,-29.11,2.81
2020-11-22 19:00,7.13,275.3,9.74,-7.10,0.66,-30.76,2.12
2020-11-22 20:00,26.26,335.8,9.65,-10.78,23.95,-30.15,2.52
2020-11-22 21:00,19.12,353.5,9.62,-2.15,19.00,-29.57,2.17
2020-11-22 22:00,9.98,134.5,9.62,7.11,-7.00,-29.28,3.38
2020-11-22 23:00,30.77,179.9,9.70,0.05,-30.77,-28.08,4.82
2020-11-23 00:00,33.67,172.2,9.67,4.59,-33.36,-27.06,5.79
2020-11-23 01:00,42.71,184.9,9.64,-3.67,-42.56,-27.19,8.06
2020-11-23 02:00,35.18,185.0,9.65,-3.05,-35.05,-28.97,6.97
2020-11-23 03:00,21.79,189.5,9.64,-3.60,-21.49,-22.81,7.50
2020-11-23 04:00,18.42,217.0,9.67,-11.08,-14.72,-27.37,8.61
2020-11-23 05:00,9.81,265.7,9.63,-9.78,-0.74,-22.09,8.77
2020-11-23 06:00,18.33,315.6,9.62,-12.83,13.10,-18.47,8.27
2020-11-23 07:00,16.94,318.6,9.66,-11.21,12.70,-25.60,10.56
2020-11-23 08:00,20.43,310.6,9.65,-15.52,13.28,-15.40,9.91
2020-11-23 09:00,11.49,341.8,9.60,-3.59,10.92,-19.94,9.24
2020-11-23 10:00,10.01,183.1,9.65,-0.54,-9.99,-13.59,10.72
2020-11-23 11:00,16.25,219.3,9.64,-10.29,-12.58,-6.66,12.44
2020-11-23 12:00,20.81,209.6,9.64,-10.27,-18.10,-15.01,13.53
2020-11-23 13:00,21.93,198.3,9.66,-6.91,-20.82,-14.76,13.48
2020-11-23 14:00,25.62,192.0,9.63,-5.31,-25.07,-20.17,10.81
2020-11-23 15:00,14.21,188.0,9.63,-1.97,-14.07,-16.98,14.05
2020-11-23 16:00,4.02,54.0,9.63,3.25,2.36,-23.50,11.31
2020-11-23 17:00,7.93,8.8,9.63,1.21,7.84,-9.33,11.91
2020-11-23 18:00,9.03,22.6,9.64,3.47,8.34,-19.89,9.23
2020-11-23 19:00,10.55,29.1,9.65,5.14,9.22,-30.76,9.20
2020-11-23 20:00,15.28,49.9,9.64,11.68,9.85,-31.45,5.15
2020-11-23 21:00,9.04,124.2,9.65,7.48,-5.08,-30.33,6.53
2020-11-23 22:00,25.14,163.2,9.63,7.26,-24.07,-21.86,11.35
2020-11-23 23:00,30.84,162.4,9.61,9.31,-29.40,-17.50,12.31
2020-11-24 00:00,42.28,170.4,9.60,7.08,-41.68,-29.91,9.49
2020-11-24 01:00,51.94,182.6,9.55,-2.35,-51.89,-18.20,14.44
2020-11-24 02:00,50.18,177.0,9.53,2.63,-50.12,-15.95,15.06
2020-11-24 03:00,54.77,183.8,9.46,-3.64,-54.65,-18.33,14.10
2020-11-24 04:00,42.86,187.1,9.40,-5.32,-42.53,-26.15,11.60
2020-11-24 05:00,28.32,197.3,9.43,-8.43,-27.04,-20.37,10.29
2020-11-24 06:00,21.03,195.9,9.41,-5.76,-20.23,-22.47,8.91
2020-11-24 07:00,15.32,170.6,9.40,2.51,-15.11,-16.41,9.75
2020-11-24 08:00,0.87,260.5,9.41,-0.85,-0.14,-23.45,7.44
2020-11-24 09:00,0.83,181.8,9.39,-0.03,-0.83,-24.42,11.67
2020-11-24 10:00,12.35,126.8,9.38,9.89,-7.39,-10.86,14.26
2020-11-24 11:00,20.69,147.8,9.38,11.01,-17.51,-11.52,13.36
2020-11-24 12:00,25.44,163.7,9.38,7.14,-24.42,-19.79,12.29
2020-11-24 13:00,41.45,168.0,9.32,8.64,-40.54,-20.99,11.65
2020-11-24 14:00,43.63,175.6,9.32,3.37,-43.50,-13.56,11.48
2020-11-24 15:00,45.66,167.1,9.34,10.18,-44.51,-21.22,14.10
2020-11-24 16:00,42.88,172.5,9.36,5.62,-42.51,-14.50,13.76
2020-11-24 17:00,43.29,162.0,9.35,13.40,-41.16,-13.21,12.77
2020-11-24 18:00,33.06,185.4,9.31,-3.13,-32.91,-18.75,13.32
2020-11-24 19:00,22.32,162.6,9.26,6.68,-21.29,-23.18,10.81
2020-11-24 20:00,21.58,188.1,9.25,-3.05,-21.36,-19.11,10.88
2020-11-24 21:00,5.06,245.2,9.26,-4.60,-2.12,-22.97,9.30
2020-11-24 22:00,15.05,242.9,9.25,-13.40,-6.86,-28.31,9.01
2020-11-24 23:00,3.34,201.8,9.19,-1.24,-3.10,-17.61,9.49
2020-11-25 00:00,17.51,192.0,9.20,-3.63,-17.13,-16.37,10.06
2020-11-25 01:00,31.56,187.1,9.19,-3.89,-31.32,-22.46,9.29
2020-11-25 02:00,37.74,179.2,9.19,0.55,-37.73,-22.88,11.81
2020-11-25 03:00,40.81,177.6,9.17,1.71,-40.78,-24.31,12.28
2020-11-25 04:00,44.17,182.2,9.19,-1.72,-44.14,-25.58,10.98
2020-11-25 05:00,33.13,187.7,9.21,-4.42,-32.83,-28.28,11.26
2020-11-25 06:00,23.03,189.2,9.19,-3.67,-22.74,-30.58,6.88
2020-11-25 07:00,18.35,178.8,9.19,0.39,-18.34,-29.56,5.37
2020-11-25 08:00,8.80,230.6,9.17,-6.81,-5.58,-28.65,4.05
2020-11-25 09:00,4.59,290.8,9.18,-4.29,1.63,-30.73,1.99
2020-11-25 10:00,18.79,334.7,9.27,-8.04,16.99,-30.52,3.14
2020-11-25 11:00,20.37,132.2,9.12,15.10,-13.68,-28.89,3.02
2020-11-25 12:00,28.11,162.8,9.17,8.32,-26.85,-29.72,3.88
2020-11-25 13:00,37.72,178.9,9.15,0.70,-37.71,-12.86,5.15
2020-11-25 14:00,50.39,188.7,9.07,-7.64,-49.81,-30.01,5.40
2020-11-25 15:00,45.48,183.6,9.13,-2.86,-45.39,-27.86,5.72
2020-11-25 16:00,35.99,189.3,9.07,-5.83,-35.52,-24.60,6.55
2020-11-25 17:00,19.53,195.4,9.10,-5.19,-18.83,-25.49,8.93
2020-11-25 18:00,14.76,185.8,9.07,-1.48,-14.68,-25.52,8.36
2020-11-25 19:00,7.10,254.1,9.01,-6.83,-1.94,-21.65,10.37
2020-11-25 20:00,7.73,354.4,9.01,-0.75,7.69,-13.45,8.99
2020-11-25 21:00,24.29,21.6,9.03,8.95,22.58,-9.25,12.50
2020-11-25 22:00,25.89,19.0,9.07,8.44,24.48,-10.46,11.70
2020-11-25 23:00,12.81,30.4,9.10,6.49,11.04,-27.02,8.41
2020-11-26 00:00,12.53,117.4,9.04,11.12,-5.77,-31.00,6.09
2020-11-26 01:00,20.34,142.2,9.05,12.47,-16.07,-31.17,5.27
2020-11-26 02:00,36.99,172.6,9.00,4.75,-36.68,-31.44,6.14
2020-11-26 03:00,41.47,174.7,8.96,3.83,-41.30,-31.13,5.80
2020-11-26 04:00,37.66,176.2,8.92,2.48,-37.58,-30.09,5.21
2020-11-26 05:00,35.26,181.8,8.92,-1.12,-35.24,-31.01,5.27
2020-11-26 06:00,36.82,178.9,8.86,0.69,-36.81,-31.46,5.99
2020-11-26 07:00,20.08,173.4,8.84,2.31,-19.95,-29.74,4.48
2020-11-26 08:00,16.77,218.1,8.87,-10.35,-13.19,-29.81,3.89
2020-11-26 09:00,5.86,265.1,8.88,-5.84,-0.50,-30.25,4.23
2020-11-26 10:00,16.65,306.9,8.90,-13.32,9.99,-31.11,3.69
2020-11-26 11:00,15.89,316.7,8.96,-10.90,11.56,-32.95,4.22
2020-11-26 12:00,2.12,125.5,8.98,1.73,-1.23,-33.67,3.12
2020-11-26 13:00,5.50,219.1,9.04,-3.47,-4.27,-31.78,3.10
2020-11-26 14:00,19.09,162.5,9.06,5.74,-18.21,-30.18,3.40
2020-11-26 15:00,27.37,171.2,9.04,4.19,-27.05,-30.90,4.27
2020-11-26 16:00,32.36,170.1,8.99,5.54,-31.88,-29.25,5.63
2020-11-26 17:00,24.12,165.7,9.00,5.94,-23.38,-22.17,8.20
2020-11-26 18:00,13.54,154.7,9.10,5.78,-12.25,-16.17,7.67
2020-11-26 19:00,7.10,136.2,9.04,4.92,-5.13,-22.40,9.17
2020-11-26 20:00,1.32,348.4,9.04,-0.27,1.29,-19.53,7.68
2020-11-26 21:00,9.40,19.6,9.04,3.16,8.86,-29.16,8.94
2020-11-26 22:00,17.33,0.5,9.05,0.17,17.33,-14.30,10.40
2020-11-26 23:00,27.13,22.1,9.01,10.20,25.14,-19.79,10.38
2020-11-27 00:00,8.22,9.8,9.00,1.40,8.10,-22.84,8.45
2020-11-27 01:00,5.38,148.6,9.00,2.80,-4.60,-31.10,5.64
2020-11-27 02:00,19.12,160.4,8.98,6.42,-18.01,-31.89,4.12
2020-11-27 03:00,24.61,166.8,8.98,5.63,-23.96,-31.74,4.27
2020-11-27 04:00,29.92,164.6,8.97,7.95,-28.85,-33.11,4.16
2020-11-27 05:00,37.42,164.7,9.02,9.87,-36.09,-32.85,4.99
2020-11-27 06:00,31.48,190.3,8.99,-5.63,-30.97,-32.86,3.68
2020-11-27 07:00,28.72,170.8,9.01,4.61,-28.35,-32.85,3.95
2020-11-27 08:00,15.82,213.1,9.00,-8.63,-13.26,-33.09,3.80
2020-11-27 09:00,7.08,278.8,9.00,-6.99,1.08,-31.22,3.92
2020-11-27 10:00,11.53,317.7,8.98,-7.75,8.53,-31.30,3.06
2020-11-27 11:00,15.96,332.0,8.92,-7.48,14.10,-32.63,3.56
2020-11-27 12:00,7.38,311.5,8.90,-5.52,4.89,-33.96,2.86
2020-11-27 13:00,13.51,192.7,8.90,-2.96,-13.18,-34.95,2.65